Location: Spring Creek
(38.2870°N, 100.2160°W)
Time: 00:54:30
(UTC+00:00)

USA 276 - Pass Details

Date: 08 May 2021
Orbit: 383 x 389 km, 50.0° (Epoch: 01 June)

Event Time Altitude Azimuth Distance (km) Brightness Sun altitude
Exits shadow 09:00:34 27° 43° (NE) 789 4.3 -25.2°
Drops below altitude 10° 09:02:09 10° 49° (NE) 1,411 5.9 -25.0°
Sets 09:04:14 0° 52° (NE) 2,266 7.3 -24.7°
